Location: Althorst
(53.6379°N, 10.7715°E)
Time: 12:45:25
(UTC+00:00)

Cosmos 2369 Rocket - Pass Details

Date: 10 December 2019
Orbit: 828 x 853 km, 71.0° (Epoch: 18 January)

Event Time Altitude Azimuth Distance (km) Brightness Sun altitude
Rises 15:31:34 0° 321° (NW) 3,386 5.4 -5.0°
Reaches altitude 10° 15:34:52 10° 341° (NNW) 2,453 4.5 -5.4°
Maximum altitude 15:38:37 18° 23° (NNE) 1,957 3.7 -5.9°
Drops below altitude 10° 15:42:23 10° 65° (ENE) 2,459 3.9 -6.4°
Enters shadow 15:43:25 - 73° (ENE) 2,723 4.2 -6.5°
